Regional Weather Roundup
Issued by NWS Northern Indiana

Home | Current Version | Previous Version | Graphics & Text | Print | Product List | Glossary On
Versions: 1 2 3 4 5 6 7 8 9 10 11 12 13 14 15 16 17 18 19 20 21 22 23 24 25 26 27 28 29 30 31 32 33 34 35 36 37 38 39 40 41 42 43 44 45 46 47 48 49 50
000
ASUS43 KIWX 051310
RWRIWX

KIWX WEATHER ROUNDUP
NATIONAL WEATHER SERVICE NORTHERN INDIANA
900 AM EDT SUN JUL 05 2015

NOTE: "FAIR" INDICATES FEW OR NO CLOUDS BELOW 12,000 FEET WITH NO
SIGNIFICANT WEATHER AND/OR OBSTRUCTIONS TO VISIBILITY.

* THESE STATIONS ARE NOT UNDER NWS QUALITY CONTROL. THEY ALSO MAY NOT
  REPORT WEATHER SUCH AS PRECIPITATION OR FOG.

INZ001>027-051400-
NORTHERN INDIANA

CITY           SKY/WX    TMP DP  RH WIND       PRES   REMARKS
GARY*          SUNNY    N/A N/A N/A CALM      30.10S HAZE
VALPARAISO     SUNNY     68  62  81 CALM      30.12R
MICHIGAN CITY* SUNNY     70  64  83 CALM      30.11R
LAPORTE*       SUNNY     68  67  94 CALM      30.12R FOG
KNOX*          SUNNY     66  64  94 S3        30.11R
SOUTH BEND     SUNNY     69  62  78 CALM      30.12R HAZE
ELKHART*       SUNNY     66  63  88 CALM      30.12S SMOKE
GOSHEN         SUNNY     67  63  87 S3        30.12R FOG
MONTICELLO*    SUNNY     66  63  90 CALM      30.11R
LOGANSPORT*    SUNNY     66  59  77 CALM      30.12R HAZE
ROCHESTER*     SUNNY     70  64  83 CALM      30.12R
WARSAW*          N/A     66  61  82 CALM      30.12S
ANGOLA*          N/A     66  59  77 CALM      30.12R
FORT WAYNE     PTSUNNY   67  60  78 CALM      30.13R HAZE
HUNTINGTON*    MOSUNNY   65  62  87 CALM      30.12R
PERU/GRISSOM   MOSUNNY   67  62  84 E1        30.11R
MARION*        MOSUNNY   65  61  88 CALM      30.13R HAZE

$$
INZ028>050-051400-
CENTRAL INDIANA

CITY           SKY/WX    TMP DP  RH WIND       PRES   REMARKS
LAFAYETTE      SUNNY     67  63  87 CALM      30.10R FOG
KOKOMO*        MOSUNNY   64  61  88 CALM      30.11S
MUNCIE*        PTSUNNY   70  60  70 SE3       30.11F
INDIANAPOLIS   PTSUNNY   70  60  70 CALM      30.09S HAZE

$$
MIZ043>046-050>051-056>058-064>065-071>073-077>080-051400-
SOUTHWEST LOWER MICHIGAN

CITY           SKY/WX    TMP DP  RH WIND       PRES   REMARKS
BATTLE CREEK   SUNNY     69  61  75 S3        30.13R
BENTON HARBOR  SUNNY     69  61  75 CALM      30.10R HAZE
COLDWATER*     SUNNY     66  60  80 CALM      30.13R
HILLSDALE*     SUNNY     69  62  76 CALM      30.13R
HOLLAND        MOSUNNY   67  60  78 SE3       30.12R HAZE
GRAND RAPIDS   SUNNY     64  60  87 CALM      30.12R FOG
KALAMAZOO      SUNNY     67  62  84 CALM      30.12R
STURGIS*       SUNNY     66  61  82 CALM      30.12R
THREE RIVERS*  FAIR      65  62  90 CALM      30.13R FOG

$$
OHZ001>008-015>018-024>025-051400-
NORTHWEST OHIO

CITY           SKY/WX    TMP DP  RH WIND       PRES   REMARKS
DEFIANCE       MOSUNNY   68  61  78 CALM      30.12S
FINDLAY        MOSUNNY   68  62  81 S5        30.12S
TOLEDO EXPRESS SUNNY     66  58  75 CALM      30.12S
TOLEDO METCALF SUNNY     66  59  78 CALM      30.13S
LIMA           PTSUNNY   67  61  81 S5        30.13S

$$
AND FOR LAKE MICHIGAN COASTAL AND OPEN LAKE BUOY OBSERVATIONS

STATION/POSITION TEMP    WIND        PRES    VSBY  WAVE
                 AIR SEA DIR/SP/G                  HT/PER
                 (F)     (DEG/KT/KT) (MB)    (MI)  (FT/S)
CALUMET HARBOR    68     220/  2/  4   N/A
MICHIGAN CITY     68     160/  6/  8   N/A
BURNS HARBOR      67     180/  5/  8 1019.6R
SAINT JOSEPH      71     170/  4/  7   N/A
4 MI NW BRIDGMAN  65 63                N/A           0
MICHIGAN CITY     66 64  240/  2/  2   N/A           0

$$
&&



USA.gov is the U.S. government's official web portal to all federal, state and local government web resources and services.